Flag for Canada Weather past 2 weeks in Kings County, Nova Scotia, Canada

Now
60 °F

Cool.


Feels Like: 60 °F
Forecast: 58 / 75 °F
Wind: 5 mph from North

Location: McNabs Island - AUT

Current Time: Aug 21, 2014 at 5:57:16 AM

Latest Report: Aug 21, 2014 at 5:00 AM


Visibility: N/A

Pressure: 30.06 "Hg

Humidity: 90%

Dew point: 57 °F

Location of Kings CountyLocation

Historic Weather in Kings County — Graph

°F

Kings County temperature yesterday

Maximum temperature yesterday: 79 °F (at 12:00 PM)
Minimum temperature yesterday: 60 °F (at 6:00 AM)
Average temperature yesterday: 69 °F

Past Weeks' High & Low Weather Summary

 TemperatureHumidityPressure
High79 °F (Aug 20, 12:00 PM)100% (Aug 12, 4:00 AM)30.18 "Hg (Aug 12, 4:00 AM)
Low56 °F (Aug 12, 4:00 AM)59% (Aug 20, 6:00 PM)29.59 "Hg (Aug 18, 2:00 PM)
Average65 °F87%29.90 "Hg
* Reported Aug 6 4:00 AM — Aug 21 4:00 AM, Kings County, Weather by CustomWeather, © 2014

Note: Actual official high and low records may vary slightly from our data, if they occured in-between our weather recording intervals... More about our weather records

Advertising

Kings County weather history for previous 24 hours

 ConditionsComfort  
Time TempWeatherWind HumidityBarometerVisibility
4:00 AM
Aug 21
61 °FCool.3 mph83%30.06 "HgN/A
3:00 AM62 °FCool.2 mph79%30.06 "HgN/A
2:00 AM63 °FMild.3 mph81%30.06 "HgN/A
1:00 AM63 °FMild.5 mph83%30.07 "HgN/A
12:00 AM64 °FMild.6 mph83%30.06 "HgN/A
11:00 PM
Aug 20
64 °FMild.5 mph87%30.04 "HgN/A
10:00 PM67 °FMild.5 mph77%30.04 "HgN/A
9:00 PM69 °FMild.3 mph72%30.02 "HgN/A
8:00 PM72 °FMild.6 mph68%30.00 "HgN/A
7:00 PM74 °FMild.8 mph63%29.98 "HgN/A
6:00 PM76 °FMild.13 mph59%29.97 "HgN/A
5:00 PM75 °FMild.9 mph61%29.95 "HgN/A
4:00 PM76 °FMild.10 mph61%29.94 "HgN/A
3:00 PM79 °FWarm.7 mph66%29.93 "HgN/A
2:00 PM77 °FWarm.7 mph66%29.94 "HgN/A
1:00 PM79 °FWarm.5 mph67%29.95 "HgN/A
12:00 PM79 °FWarm.3 mph65%29.95 "HgN/A
11:00 AM76 °FMild.3 mph70%29.95 "HgN/A
10:00 AM72 °FMild.2 mph66%29.95 "HgN/A
9:00 AM67 °FMild.3 mph72%29.94 "HgN/A
8:00 AM64 °FMild.3 mph77%29.93 "HgN/A
7:00 AM61 °FCool.3 mph82%29.93 "HgN/A
6:00 AM60 °FCool.3 mph87%29.90 "HgN/A
5:00 AM61 °FCool.2 mph86%29.88 "HgN/A
Weather by CustomWeather, © 2014

See weather overviewHow to use our weather pages